KUIPER-00053

Last updated on Thu Jul 03 2025 00:02:08 GMT+0000 (Coordinated Universal Time)

1 64513U 25134P 25183.58335648 .00004309 00000+0 13139-3 0 9990 2 64513 51.8782 286.8915 0002937 118.0479 11.5984 15.36099222 1303
UTC large
Height (km)
Speed (km/s)
/
Latitude / Longitude
Inclination (degrees)
Orbital Period (minutes)
Azimuth
Elevation
Range (km)
Doppler Factor

Next 0 passes for location: London (51.5072 / 0.1276)

Sorry there are no passes over London.